sat.trackr.live / text

‹ back to catalog

STARLINK-2565

NORAD 48280 · 2021-036E

PAYLOAD ACTIVE UNKNOWN

§ Identity

Operator
Country
US
Launch date
2021-04-29
Launch site
AFETR
Launch vehicle
Mass (kg)
RCS (m²)

Purposes: comms

External: N2YO · Heavens-Above · Gunter

§ Orbital elements

Epoch: 2026-09-19T18:47:02.787360Z

Period
94.01 min
Inclination
53.1599°
Eccentricity
0.0001628
Mean motion
15.31717463 rev/d
Perigee alt
469.6 km
Apogee alt
471.8 km
Semi-major
6,848.8 km
B*
1.1652e-4
RAAN
277.9183°
Arg perigee
67.8647°
Mean anomaly
292.2527°
Rev number
29,777

§ Raw data

STARLINK-25651 48280U 21036E   26262.78267115  .00003254  00000+0  11652-3 0  99902 48280  53.1599 277.9183 0001628  67.8647 292.2527 15.31717463297777

JSON: /api/v1/satellites/48280 · /tle

For live sub-satellite position, see the globe view (requires WebGL).

§ Visibility from observer

Set your observer location to see the next 7 days of passes ≥ 10°. The values pass through the URL so the page stays shareable.

No JS? Fill the form by hand. The geolocation button needs JavaScript.